[[{"header":{"parameterUnit":"m.s-1","parameterCategory":1,"la1":30.2991,"la2":30.254,"lo1":-89.0895,"lo2":-89.0444,"dy":0.0017,"dx":0.0017,"nx":28,"ny":28,"refTime":"2023-09-10T21:00:00:Z","depth":0,"parameterNumber":2,"parameterNumberName":"U-component_of_WINDS"},"data":[0,0,0,0,0,0,0,0,0,0,0,0,0,0,0,0,0,0,0,0,0,0,0,0,0,0,0,0,0,0,0,0,0,0,0,0,0,0,0,0,0,0,0,0,0,0,0,0,0,0,0,0,0,0,0,0,0,0,2.211,2.211,0,2.2147,2.2148,2.2148,2.2114,2.2112,2.2111,2.2109,2.2147,2.2149,2.2151,0,0,0,0,0,0,0,0,0,0,0,0,0,2.2005,2.2007,2.2109,2.211,2.211,2.2147,2.2148,2.2148,2.2114,2.2112,2.211,2.2109,2.2146,2.2149,2.2152,0,0,0,0,0,0,0,0,0,0,0,0,0,2.2047,2.2008,2.2109,2.2098,2.2097,2.2147,2.2148,2.2148,2.2114,2.2112,2.211,2.2108,2.2145,2.2149,2.2152,2.2215,0,0,2.2163,2.2164,0,0,0,0,0,0,0,0,2.2045,2.2051,2.2099,2.2099,2.2098,2.2124,2.2125,2.2171,2.2115,2.2108,2.2109,2.2107,2.2141,2.2144,2.2156,2.2217,2.2219,2.2163,2.2165,2.2166,2.2167,0,0,0,0,0,0,0,2.2042,2.2049,2.2124,2.21,2.2099,2.209,2.2093,2.2133,2.2135,2.2108,2.2106,2.2111,2.214,2.2153,2.2157,2.2219,2.2163,2.2166,2.2168,2.2169,2.2331,2.2333,0,0,0,0,0,0,2.2041,2.2047,2.2123,2.2126,2.2066,2.2093,2.2097,2.2117,2.2135,2.2136,2.2112,2.2109,2.2148,2.2153,2.2158,2.2231,2.2166,2.217,2.2172,2.2329,2.2332,2.2334,0,0,0,0,0,0,2.2039,2.2048,2.2122,2.2086,2.2094,2.2097,2.212,2.2119,2.2132,2.2138,2.2138,2.2125,2.2147,2.2153,2.2201,2.2232,2.2171,2.2174,2.2326,2.233,2.2333,2.2379,0,0,0,0,0,0,2.2036,2.2047,2.2072,2.2087,2.2096,2.2165,2.2122,2.2122,2.2138,2.2134,2.215,2.2151,2.2145,2.2196,2.2204,2.2235,2.2177,2.2323,2.2328,2.2332,2.2374,2.2383,2.2391,0,0,0,0,0,2.2032,2.2084,2.2073,2.2083,2.2128,2.2167,2.2172,2.2165,2.2141,2.2165,2.2169,2.215,2.2228,2.2201,2.221,2.2243,2.2321,2.2327,2.2331,2.2371,2.2381,2.2391,0,0,0,0,0,0,2.2073,2.2085,2.2074,2.2132,2.2149,2.2161,2.2191,2.2177,2.22,2.2195,2.2185,2.2189,2.2239,2.2246,2.2216,2.2304,2.227,2.2277,2.2297,2.2307,2.2315,2.2312,2.218,0,0,0,0,0,2.2089,2.212,2.2129,2.2179,2.2188,2.2188,2.2205,2.2198,2.2215,2.2221,2.2228,2.2245,2.2272,2.229,2.2316,2.2376,2.2377,2.2403,2.2411,2.2418,2.2423,2.2452,2.2463,2.235,2.235,2.235,0,0,2.2121,2.2132,2.2152,2.2188,2.2199,2.2231,2.2194,2.223,2.2252,2.2226,2.2271,2.2277,2.2294,2.2347,2.2371,2.2355,2.2455,2.2424,2.2429,2.2431,2.2459,2.2469,2.2479,2.2354,2.2353,2.2353,0,0,2.2196,2.2209,2.2251,2.2263,2.2281,2.2281,2.2291,2.2305,2.2308,2.2353,2.2333,2.236,2.2409,2.2421,2.2433,2.2512,2.2495,2.2521,2.2563,2.2591,2.26,2.2608,2.2634,2.2643,2.2527,2.2527,2.2527,0,2.2234,2.2282,2.2274,2.231,2.2325,2.2303,2.2345,2.2357,2.2383,2.2393,2.2375,2.2433,2.2444,2.2498,2.2517,2.2529,2.2539,2.2518,2.26,2.2607,2.2615,2.2639,2.2649,2.253,2.2529,2.2529,2.2529,0,2.2326,2.2359,2.2391,2.2416,2.2434,2.2473,2.247,2.249,2.2482,2.2483,2.2528,2.2539,2.2566,2.2579,2.2571,2.2632,2.2621,2.2601,2.2567,2.2628,2.2651,2.266,2.2534,2.2533,2.2532,2.2531,0,0,2.2428,2.2447,2.2459,2.2468,2.2487,2.2511,2.2548,2.2575,2.2591,2.2609,2.2639,2.268,2.2661,2.2675,2.2669,2.2695,2.2753,2.2672,2.2672,2.2684,2.2817,2.283,2.2841,2.2742,2.2744,2.2746,2.2815,0,2.2501,2.2566,2.2559,2.262,2.2649,2.2628,2.266,2.2674,2.2676,2.27,2.2702,2.273,2.2705,2.2713,2.2738,2.274,2.2779,2.2736,2.2768,2.2769,2.2762,2.2853,2.2867,2.2932,2.2824,2.2825,2.2827,0,2.2596,2.2617,2.268,2.2692,2.2704,2.2733,2.2755,2.2779,2.2794,2.2793,2.2809,2.2797,2.2833,2.28,2.2848,2.2818,2.2831,2.2834,2.2837,2.2838,2.28,2.2854,2.2953,2.2962,2.2841,2.284,2.2839,0,2.266,2.2705,2.2748,2.2757,2.2773,2.2793,2.28,2.2813,2.2828,2.2848,2.2857,2.2881,2.2894,2.2912,2.2906,2.2883,2.2955,2.2922,2.2954,2.2954,2.2968,2.2967,2.3068,2.2981,2.298,2.298,2.298,0,2.2742,2.2781,2.2776,2.2803,2.2845,2.2837,2.2879,2.2884,2.2895,2.2921,2.2905,2.293,2.2922,2.2946,2.2942,2.2981,2.2987,2.2987,2.2985,2.2987,2.2987,2.2994,2.2988,2.2983,2.2982,2.2982,2.2981,0,2.2821,2.2819,2.2864,2.2875,2.2878,2.2909,2.2917,2.2941,2.2942,2.2975,2.2982,2.2983,2.301,2.3007,2.3037,2.3034,2.3082,2.3076,2.3077,2.3074,2.3106,2.3102,2.3213,2.3226,2.3132,2.3133,2.3134,0,2.2872,2.2901,2.2914,2.293,2.2939,2.2965,2.2981,2.2974,2.299,2.3008,2.303,2.3055,2.3075,2.3119,2.3122,2.3144,2.3137,2.3175,2.314,2.3141,2.3135,2.3132,2.3134,2.3181,2.3182,2.3183,2.3183,0,2.2962,2.2959,2.2982,2.3005,2.3023,2.3041,2.3056,2.307,2.3064,2.3084,2.3111,2.3126,2.3157,2.3181,2.3203,2.3209,2.3195,2.3194,2.3202,2.3204,2.3202,2.3201,2.3092,2.3191,2.319,2.319,2.3189,2.3189,2.3027,2.3051,2.3063,2.3089,2.3099,2.3114,2.3136,2.3139,2.3162,2.3186,2.3181,2.3211,2.3223,2.325,2.3259,2.3281,2.3267,2.328,2.3283,2.3285,2.3288,2.32,2.3285,2.3285,2.3285,2.3285,2.3285,0,2.3113,2.312,2.3144,2.3166,2.3185,2.3171,2.3187,2.3204,2.323,2.3243,2.3263,2.3293,2.3317,2.3321,2.3343,2.336,2.3354,2.3366,2.3364,2.3365,2.33,2.329,2.3371,2.3371,2.3371,2.3371,2.3371,2.3371,2.3161,2.32,2.3199,2.3243,2.3249,2.3278,2.3288,2.3301,2.3311,2.3345,2.3365,2.3367,2.3376,2.3399,2.3419,2.342,2.3428,2.3442,2.344,2.3379,2.337,2.3362,2.3351,2.3444,2.3444,2.3502,2.3503,2.3503]},{"header":{"parameterUnit":"m.s-1","parameterCategory":1,"la1":30.2991,"la2":30.254,"lo1":-89.0895,"lo2":-89.0444,"dy":0.0017,"dx":0.0017,"nx":28,"ny":28,"refTime":"2023-09-10T21:00:00:Z","depth":0,"parameterNumber":3,"parameterNumberName":"V-component_of_WINDS"},"data":[0,0,0,0,0,0,0,0,0,0,0,0,0,0,0,0,0,0,0,0,0,0,0,0,0,0,0,0,0,0,0,0,0,0,0,0,0,0,0,0,0,0,0,0,0,0,0,0,0,0,0,0,0,0,0,0,0,0,1.6831,1.683,0,1.6801,1.6801,1.6801,1.6752,1.6751,1.675,1.6749,1.6718,1.6718,1.6718,0,0,0,0,0,0,0,0,0,0,0,0,0,1.6843,1.6843,1.6831,1.683,1.683,1.6801,1.6801,1.68,1.6752,1.6751,1.675,1.6749,1.6718,1.6718,1.6718,0,0,0,0,0,0,0,0,0,0,0,0,0,1.6828,1.6843,1.6831,1.6802,1.68,1.6801,1.6801,1.68,1.6752,1.6751,1.675,1.6748,1.6718,1.6718,1.6718,1.6745,0,0,1.6719,1.6719,0,0,0,0,0,0,0,0,1.6829,1.6828,1.6807,1.6804,1.6801,1.6779,1.6794,1.6782,1.6753,1.677,1.6749,1.6748,1.674,1.6738,1.6735,1.6744,1.6743,1.6719,1.6719,1.6719,1.6719,0,0,0,0,0,0,0,1.683,1.6829,1.6819,1.6807,1.6803,1.679,1.6787,1.6791,1.6763,1.6769,1.6765,1.6762,1.6738,1.6735,1.6734,1.6742,1.6719,1.6719,1.6719,1.6719,1.6769,1.6771,0,0,0,0,0,0,1.6836,1.683,1.682,1.6818,1.6812,1.6791,1.6787,1.6787,1.6763,1.6758,1.6763,1.676,1.6736,1.6734,1.6733,1.6761,1.6719,1.6719,1.6719,1.6768,1.677,1.6771,0,0,0,0,0,0,1.6836,1.6835,1.6821,1.6823,1.682,1.6793,1.6793,1.6787,1.6785,1.6759,1.6753,1.6766,1.6735,1.6733,1.6742,1.676,1.6719,1.6719,1.6767,1.6769,1.6771,1.682,0,0,0,0,0,0,1.6837,1.6836,1.6846,1.6824,1.682,1.6832,1.6794,1.6788,1.6785,1.6781,1.676,1.6755,1.6734,1.6742,1.6742,1.6759,1.6719,1.6765,1.6768,1.677,1.6817,1.6823,1.6829,0,0,0,0,0,1.6837,1.6862,1.6847,1.6846,1.6833,1.6833,1.6831,1.6806,1.6787,1.6797,1.6779,1.6756,1.6758,1.6744,1.6743,1.676,1.6764,1.6767,1.677,1.6814,1.6822,1.6829,0,0,0,0,0,0,1.6887,1.6858,1.6842,1.6859,1.6849,1.6825,1.6837,1.6816,1.681,1.6806,1.6775,1.6771,1.6784,1.6773,1.6758,1.6784,1.6757,1.676,1.6791,1.6798,1.6805,1.6807,1.6719,0,0,0,0,0,1.69,1.6903,1.6877,1.6895,1.6891,1.6865,1.6864,1.6845,1.6833,1.6828,1.6812,1.6801,1.6798,1.6798,1.6795,1.6815,1.6809,1.6826,1.6832,1.6838,1.684,1.6849,1.6856,1.6781,1.6781,1.6781,0,0,1.6927,1.6912,1.6915,1.6905,1.6895,1.6897,1.6861,1.6866,1.6868,1.6829,1.6837,1.6824,1.6809,1.6824,1.6829,1.6815,1.686,1.6841,1.6846,1.6846,1.6852,1.686,1.6866,1.6783,1.6783,1.6782,0,0,1.6978,1.6967,1.698,1.697,1.6955,1.6937,1.694,1.6919,1.6909,1.6916,1.6886,1.6887,1.6885,1.6875,1.687,1.6915,1.6892,1.6915,1.6947,1.6956,1.6962,1.6967,1.6982,1.6988,1.6918,1.6918,1.6918,0,1.7013,1.7017,1.6989,1.6996,1.6991,1.6956,1.6968,1.696,1.6945,1.6942,1.6926,1.6921,1.6909,1.692,1.6931,1.6928,1.693,1.6917,1.6963,1.6968,1.6972,1.6986,1.6992,1.692,1.692,1.692,1.692,0,1.706,1.7063,1.7076,1.7061,1.7058,1.7068,1.7041,1.7041,1.7022,1.7006,1.7013,1.6997,1.6989,1.699,1.6972,1.6998,1.6989,1.6969,1.6941,1.6982,1.6995,1.7,1.6924,1.6923,1.6923,1.6922,0,0,1.7142,1.7112,1.7116,1.7109,1.7089,1.709,1.7097,1.7089,1.709,1.708,1.7084,1.7082,1.7062,1.7056,1.7037,1.7044,1.7079,1.7022,1.7022,1.7033,1.7105,1.7121,1.7127,1.7064,1.7065,1.7066,1.7106,0,1.7188,1.7199,1.7174,1.7191,1.7192,1.7158,1.7164,1.7152,1.7136,1.7135,1.7117,1.7116,1.7091,1.7086,1.7092,1.7074,1.7093,1.7071,1.7067,1.7067,1.7072,1.7134,1.715,1.7189,1.7111,1.7112,1.7112,0,1.7243,1.7236,1.7253,1.723,1.723,1.7236,1.7226,1.7225,1.721,1.7198,1.7191,1.7167,1.7172,1.7145,1.715,1.7135,1.7132,1.7122,1.7123,1.7121,1.7092,1.7133,1.7201,1.7207,1.712,1.7119,1.7119,0,1.73,1.7294,1.7303,1.7298,1.7272,1.7277,1.7266,1.725,1.7246,1.7237,1.7234,1.7226,1.7221,1.7215,1.7189,1.7173,1.7197,1.7168,1.7186,1.7187,1.7193,1.7193,1.726,1.7192,1.7192,1.7191,1.7191,0,1.7353,1.7365,1.7328,1.7334,1.7345,1.7316,1.7327,1.7313,1.7299,1.73,1.727,1.7272,1.7238,1.7236,1.7216,1.7222,1.7221,1.721,1.7205,1.7213,1.7214,1.721,1.7206,1.7193,1.7193,1.7192,1.7192,0,1.7419,1.7395,1.7402,1.7377,1.7371,1.738,1.7358,1.7361,1.7343,1.7346,1.7344,1.7316,1.7312,1.7286,1.7275,1.7262,1.7275,1.7264,1.728,1.7276,1.7295,1.7294,1.7363,1.737,1.7297,1.7298,1.7299,0,1.7454,1.7462,1.7438,1.7436,1.7427,1.7426,1.7422,1.7393,1.739,1.7372,1.7377,1.7371,1.7364,1.7358,1.7336,1.7327,1.7316,1.7341,1.7314,1.7322,1.7315,1.7315,1.7315,1.7346,1.7347,1.7348,1.7349,0,1.752,1.7507,1.7503,1.7494,1.749,1.7481,1.7471,1.7472,1.7439,1.7437,1.7432,1.7427,1.7416,1.7409,1.7396,1.7384,1.7361,1.7357,1.736,1.7368,1.7377,1.7372,1.7295,1.7355,1.7355,1.7354,1.7354,1.7354,1.757,1.7575,1.7559,1.7554,1.7543,1.7534,1.7536,1.7518,1.7513,1.7502,1.7485,1.7482,1.7465,1.7446,1.7436,1.7432,1.7419,1.7424,1.7425,1.7427,1.7431,1.7378,1.743,1.743,1.7429,1.7429,1.7429,0,1.7633,1.7621,1.7617,1.7603,1.7599,1.7578,1.7565,1.7563,1.7561,1.7547,1.7541,1.7534,1.7527,1.7504,1.7494,1.7496,1.7485,1.7494,1.7494,1.7491,1.7444,1.7441,1.7503,1.7503,1.7503,1.7503,1.7503,1.7503,1.7666,1.7673,1.7658,1.7658,1.7645,1.7642,1.7637,1.7627,1.7616,1.7611,1.7604,1.759,1.7572,1.756,1.7552,1.7545,1.7542,1.7555,1.7545,1.7502,1.7494,1.7488,1.7485,1.7555,1.7555,1.7592,1.7593,1.7593]}]]